Du Bois, PA

8:37 AM EST on December 06, 2019 (GMT -0500)
Du Bois-Jefferson County

Weather History for KDUJ - October, 2019

Change the Weather History Date:

Thursday, October 17, 2019

  Actual Average Record
Temperature  
Mean Temperature 41 °F 49 °F  
Max Temperature 43 °F 58 °F 76 °F (1963)
Min Temperature 39 °F 39 °F 27 °F (1970)
Degree Days  
Heating Degree Days 24 16  
Month to date heating degree days 209 237  
Since 1 July heating degree days 312 483  
Cooling Degree Days 0 0  
Month to date cooling degree days 23 0  
Year to date cooling degree days 430 360  
Moisture  
Dew Point 38 °F    
Average Humidity 89    
Maximum Humidity 93    
Minimum Humidity 82    
Precipitation  
Precipitation 0.22 in 0.10 in 1.07 in (1975)
Month to date precipitation 2.64 1.74  
Year to date precipitation 39.04 34.98  
Sea Level Pressure  
Sea Level Pressure 29.67 in    
Wind  
Wind Speed 15 mph ()    
Max Wind Speed 24 mph    
Max Gust Speed 34 mph    
Visibility 7.3 miles    
Events Rain    
T = Trace of Precipitation, MM = Missing Value Source: Averaged Metar Reports

Daily Weather History Graph

Daily Weather History Graph

Search for Another Location

Airport or City:

Astronomy

Oct. 17, 2019 Rise Set
Actual Time 7:29 AM EDT 6:32 PM EDT
Civil Twilight 7:01 AM EDT 6:59 PM EDT
Nautical Twilight 6:29 AM EDT 7:31 PM EDT
Astronomical Twilight 5:57 AM EDT 8:03 PM EDT
Moon 9:00 PM EDT (10/17) 11:00 AM EDT (10/17)
Length of Visible Light 11h 58m
Length of Day
11h 02m
Waning Gibbous, 87% of the Moon is Illuminated
Oct 17
Waning Gibbous
Oct 21
Last Quarter
Oct 27
New
Nov 4
First Quarter
Nov 12
Full

Hourly Weather History & Observations

Time (EDT) Temp. Windchill Dew Point Humidity Pressure Visibility Wind Dir Wind Speed Gust Speed Precip Events Conditions
12:11 AM 43.0 °F 35.4 °F 39.0 °F 86% 29.55 in 10.0 mi West 16.1 mph 27.6 mph N/A   Overcast
12:19 AM 42.1 °F 34.2 °F 39.0 °F 89% 29.54 in 10.0 mi West 16.1 mph 24.2 mph N/A   Overcast
12:53 AM 42.1 °F 34.5 °F 39.0 °F 89% 29.56 in 10.0 mi West 15.0 mph 26.5 mph N/A   Overcast
1:18 AM 42.1 °F 33.3 °F 37.9 °F 85% 29.54 in 10.0 mi West 19.6 mph 28.8 mph N/A   Overcast
1:53 AM 42.1 °F 32.8 °F 37.0 °F 82% 29.56 in 10.0 mi WNW 21.9 mph 28.8 mph N/A   Overcast
2:53 AM 41.0 °F 32.8 °F 37.0 °F 86% 29.55 in 10.0 mi West 16.1 mph 28.8 mph N/A   Overcast
3:53 AM 41.0 °F 32.8 °F 36.0 °F 82% 29.55 in 10.0 mi West 16.1 mph 31.1 mph N/A   Overcast
4:53 AM 39.9 °F 31.4 °F 37.0 °F 89% 29.55 in 10.0 mi West 16.1 mph 26.5 mph N/A   Overcast
5:53 AM 41.0 °F 32.8 °F 37.0 °F 86% 29.55 in 10.0 mi West 16.1 mph 28.8 mph N/A   Overcast
6:53 AM 39.9 °F 31.8 °F 37.0 °F 89% 29.58 in 6.0 mi West 15.0 mph 24.2 mph 0.01 in   Overcast
7:04 AM 39.9 °F 30.8 °F 37.0 °F 89% 29.55 in 6.0 mi West 18.4 mph 25.3 mph 0.00 in Rain Light Rain
7:46 AM 39.9 °F 31.8 °F 37.9 °F 93% 29.57 in 8.0 mi West 15.0 mph 24.2 mph 0.01 in   Overcast
7:53 AM 39.9 °F 31.1 °F 37.0 °F 89% 29.60 in 10.0 mi West 17.3 mph 25.3 mph 0.01 in   Overcast
8:30 AM 39.9 °F 30.5 °F 37.9 °F 93% 29.59 in 10.0 mi West 19.6 mph 24.2 mph 0.00 in   Overcast
8:46 AM 41.0 °F 31.6 °F 37.0 °F 86% 29.60 in 9.0 mi West 20.7 mph 29.9 mph 0.01 in   Overcast
8:53 AM 41.0 °F 32.8 °F 37.9 °F 89% 29.62 in 6.0 mi West 16.1 mph 29.9 mph 0.01 in   Overcast
9:07 AM 41.0 °F 32.8 °F 37.9 °F 89% 29.60 in 3.0 mi West 16.1 mph 28.8 mph 0.00 in Rain Light Rain
9:15 AM 41.0 °F 33.9 °F 37.9 °F 89% 29.60 in 7.0 mi West 12.7 mph 23.0 mph 0.00 in Rain Light Rain
9:31 AM 41.0 °F 32.2 °F 37.9 °F 89% 29.61 in 8.0 mi West 18.4 mph 24.2 mph 0.00 in   Overcast
9:53 AM 41.0 °F 33.5 °F 37.9 °F 89% 29.64 in 2.0 mi West 13.8 mph 21.9 mph 0.02 in Rain Light Rain
10:31 AM 41.0 °F 32.2 °F 39.0 °F 93% 29.62 in 4.0 mi West 18.4 mph 24.2 mph 0.03 in   Overcast
10:53 AM 41.0 °F 34.7 °F 39.0 °F 93% 29.66 in 5.0 mi West 10.4 mph 25.3 mph 0.03 in Rain Light Rain
11:50 AM 42.8 °F 35.4 °F 39.2 °F 87% 29.65 in 5.0 mi WNW 15.0 mph 25.3 mph 0.02 in Rain Light Rain
11:53 AM 42.1 °F 34.5 °F 39.0 °F 89% 29.68 in 7.0 mi West 15.0 mph 24.2 mph 0.02 in Rain Light Rain
12:01 PM 42.1 °F 34.9 °F 39.0 °F 89% 29.65 in 9.0 mi WNW 13.8 mph 24.2 mph 0.00 in Rain Light Rain
12:17 PM 42.1 °F 33.6 °F 37.9 °F 85% 29.65 in 10.0 mi WNW 18.4 mph 29.9 mph 0.00 in   Overcast
12:29 PM 42.1 °F 33.1 °F 37.9 °F 85% 29.66 in 8.0 mi WNW 20.7 mph 32.2 mph 0.00 in   Overcast
12:53 PM 42.1 °F 34.9 °F 39.0 °F 89% 29.69 in 6.0 mi WNW 13.8 mph - 0.00 in   Overcast
1:31 PM 42.1 °F 34.5 °F 39.9 °F 92% 29.67 in 6.0 mi West 15.0 mph 25.3 mph N/A   Overcast
1:53 PM 42.1 °F 34.2 °F 39.9 °F 92% 29.70 in 4.0 mi West 16.1 mph 24.2 mph 0.02 in Rain Light Rain
2:53 PM 43.0 °F 36.4 °F 39.9 °F 89% 29.72 in 5.0 mi West 12.7 mph 19.6 mph 0.01 in   Overcast
3:02 PM 42.1 °F 34.2 °F 39.9 °F 92% 29.69 in 8.0 mi West 16.1 mph 24.2 mph N/A   Overcast
3:53 PM 42.1 °F 33.1 °F 39.0 °F 89% 29.73 in 3.0 mi West 20.7 mph 26.5 mph 0.02 in Rain Light Rain
4:53 PM 42.1 °F 34.9 °F 39.9 °F 92% 29.75 in 2.5 mi West 13.8 mph 20.7 mph 0.02 in   Overcast
5:00 PM 42.1 °F 34.9 °F 39.9 °F 92% 29.73 in 3.0 mi West 13.8 mph 21.9 mph N/A   Overcast
5:11 PM 42.1 °F 34.5 °F 39.0 °F 89% 29.73 in 2.0 mi West 15.0 mph 26.5 mph 0.01 in   Overcast
5:53 PM 42.1 °F 34.5 °F 39.0 °F 89% 29.77 in 8.0 mi WNW 15.0 mph 23.0 mph 0.01 in   Overcast
6:15 PM 42.1 °F 34.5 °F 39.0 °F 89% 29.75 in 9.0 mi WNW 15.0 mph 26.5 mph N/A   Overcast
6:45 PM 42.1 °F 34.5 °F 39.0 °F 89% 29.76 in 6.0 mi WNW 15.0 mph 21.9 mph 0.00 in   Overcast
6:53 PM 42.1 °F 35.2 °F 39.0 °F 89% 29.79 in 7.0 mi WNW 12.7 mph 27.6 mph 0.00 in   Overcast
7:38 PM 41.0 °F 34.7 °F 39.0 °F 93% 29.78 in 5.0 mi WNW 10.4 mph - 0.02 in Rain Light Rain
7:53 PM 41.0 °F 34.3 °F 39.0 °F 93% 29.81 in 6.0 mi WNW 11.5 mph - 0.03 in Rain Light Rain
8:53 PM 41.0 °F 35.2 °F 37.9 °F 89% 29.84 in 9.0 mi WNW 9.2 mph 20.7 mph 0.01 in   Overcast
9:53 PM 41.0 °F 34.3 °F 37.0 °F 86% 29.86 in 10.0 mi WNW 11.5 mph - N/A   Overcast
10:09 PM 41.0 °F 33.5 °F 37.0 °F 86% 29.84 in 10.0 mi WNW 13.8 mph 23.0 mph N/A   Overcast
10:53 PM 39.9 °F 32.1 °F 37.0 °F 89% 29.87 in 10.0 mi WNW 13.8 mph - N/A   Overcast
11:53 PM 39.0 °F 32.3 °F 36.0 °F 89% 29.88 in 10.0 mi WNW 10.4 mph - N/A   Overcast